Location: ????????
(55.6333°N, 37.7000°E)
Time: 12:01:16
(UTC+00:00)

Cosmos 1833 Rocket - Pass Details

Date: 19 May 2025
Orbit: 831 x 839 km, 71.0° (Epoch: 14 June)

Event Time Altitude Azimuth Distance (km) Brightness Sun altitude
Rises 18:42:08 0° 198° (SSW) 3,381 5.5 -6.9°
Reaches altitude 10° 18:44:36 10° 195° (SSW) 2,451 4.8 -7.1°
Maximum altitude 18:50:07 60° 116° (ESE) 959 2.8 -7.5°
Drops below altitude 10° 18:55:40 10° 38° (NE) 2,466 5.3 -8.0°
Sets 18:58:08 0° 36° (NE) 3,404 6.1 -8.2°
